Tracking 30995 objects as of 5-Jul-2025
HD Live streaming from Space Station
objects crossing your sky now

SL-14 DEB

Track SL-14 DEB now!
10-day predictions


NORAD ID: 45318
Int'l Code: 1991-056BG
Perigee: 1,186.7 km
Apogee: 1,200.8 km
Inclination: 82.6 °
Period: 109.1 minutes
Semi major axis: 7564 km
RCS: Unknown
Launch date: August 15, 1991
Source: Commonwealth of Independent States (former USSR) (CIS)
Launch site: PLESETSK MISSILE AND SPACE COMPLEX (PKMTR)

Note: This is SATELLITE DEBRIS
Your satellite tracking list
Your tracking list is empty




NASA's NSSDC Master Catalog

Two Line Element Set (TLE):
1 45318U 91056BG  25186.49871427  .00000231  00000-0  54709-3 0  9990
2 45318  82.5698  22.7408 0009297 225.8466 134.1894 13.19512309257844
Source of the keplerian elements: AFSPC